This is the latest recevied weather packets stored in our database for station/object DG9VH-13. If no packets are shown the sender has not sent any weather packets the latest 10 day(s).
| Time | Temp. | Humidity | Pressure | Rain* | Wind** | Luminosity | Snow |
|---|---|---|---|---|---|---|---|
| 1788582002 | 20° C | 73% | 1002.8 hPa | - | - | - | - |
| 1788581401 | 20° C | 74% | 1002.8 hPa | - | - | - | - |
| 1788580801 | 20.56° C | 73% | 1002.7 hPa | - | - | - | - |
| 1788580200 | 20.56° C | 73% | 1002.5 hPa | - | - | - | - |
| 1788579600 | 20.56° C | 73% | 1002.5 hPa | - | - | - | - |
| 1788579002 | 20.56° C | 73% | 1002.4 hPa | - | - | - | - |
| 1788578402 | 20.56° C | 73% | 1002.4 hPa | - | - | - | - |
| 1788577801 | 21.11° C | 72% | 1002.4 hPa | - | - | - | - |
| 1788577202 | 21.11° C | 72% | 1002.2 hPa | - | - | - | - |
| 1788576602 | 21.11° C | 72% | 1002 hPa | - | - | - | - |
| 1788574801 | 21.67° C | 72% | 1001.8 hPa | - | - | - | - |
| 1788574202 | 21.67° C | 72% | 1001.8 hPa | - | - | - | - |
| 1788573601 | 21.11° C | 72% | 1001.6 hPa | - | - | - | - |
| 1788573003 | 21.11° C | 72% | 1001.8 hPa | - | - | - | - |
| 1788572401 | 21.11° C | 72% | 1001.9 hPa | - | - | - | - |
| 1788571801 | 21.67° C | 72% | 1001.9 hPa | - | - | - | - |
| 1788571201 | 21.67° C | 72% | 1001.8 hPa | - | - | - | - |
| 1788570634 | 21.67° C | 71% | 1001.9 hPa | - | - | - | - |
| 1788570002 | 21.67° C | 71% | 1001.9 hPa | - | - | - | - |
| 1788569402 | 21.67° C | 72% | 1002 hPa | - | - | - | - |
| 1788568803 | 21.67° C | 73% | 1001.9 hPa | - | - | - | - |
| 1788568204 | 21.67° C | 73% | 1001.5 hPa | - | - | - | - |
| 1788567602 | 21.67° C | 72% | 1001.6 hPa | - | - | - | - |
| 1788567002 | 22.22° C | 72% | 1001.5 hPa | - | - | - | - |
| 1788566401 | 22.22° C | 72% | 1001.5 hPa | - | - | - | - |
* Rain since midnight (hover to see other rain measurements)
** Current wind speed in m/s (hover to see current wind gust speed)